This is the latest recevied weather packets stored in our database for station/object K0SDS. If no packets are shown the sender has not sent any weather packets the latest 10 day(s).
| Time | Temp. | Humidity | Pressure | Rain* | Wind** | Luminosity | Snow |
|---|---|---|---|---|---|---|---|
| 1777771976 | 12.22° C | 52% | 1017.6 hPa | 0 mm | - | 0 W/m² | - |
| 1777771673 | 12.78° C | 50% | 1017.7 hPa | 0 mm | - | 0 W/m² | - |
| 1777771370 | 13.33° C | 48% | 1017.7 hPa | 0 mm | - | 0 W/m² | - |
| 1777771067 | 13.33° C | 49% | 1017.9 hPa | 0 mm | - | 2 W/m² | - |
| 1777770764 | 13.89° C | 51% | 1017.8 hPa | 0 mm | - | 3 W/m² | - |
| 1777770460 | 13.89° C | 47% | 1017.5 hPa | 0 mm | - | 5 W/m² | - |
| 1777770157 | 14.44° C | 44% | 1017.8 hPa | 0 mm | - | 8 W/m² | - |
| 1777769855 | 15° C | 42% | 1017.7 hPa | 0 mm | - | 10 W/m² | - |
| 1777769552 | 15.56° C | 45% | 1017.6 hPa | 0 mm | - | 14 W/m² | - |
| 1777769247 | 15.56° C | 39% | 1017.6 hPa | 0 mm | - | 16 W/m² | - |
| 1777768946 | 16.11° C | 39% | 1017.7 hPa | 0 mm | - | 19 W/m² | - |
| 1777768643 | 16.11° C | 35% | 1017.7 hPa | 0 mm | - | 25 W/m² | - |
| 1777768340 | 16.67° C | 38% | 1017.6 hPa | 0 mm | - | 24 W/m² | - |
| 1777768037 | 17.78° C | 32% | 1017.6 hPa | 0 mm | - | 28 W/m² | - |
| 1777767734 | 18.33° C | 35% | 1017.6 hPa | 0 mm | - | 31 W/m² | - |
| 1777767429 | 18.33° C | 34% | 1017.9 hPa | 0 mm | - | 68 W/m² | - |
| 1777767126 | 18.89° C | 30% | 1017.9 hPa | 0 mm | - | 79 W/m² | - |
| 1777766824 | 18.89° C | 30% | 1017.7 hPa | 0 mm | - | 95 W/m² | - |
| 1777766521 | 18.89° C | 28% | 1017.8 hPa | 0 mm | - | 103 W/m² | - |
| 1777766218 | 19.44° C | 34% | 1017.8 hPa | 0 mm | - | 108 W/m² | - |
| 1777765916 | 19.44° C | 31% | 1018 hPa | 0 mm | - | 115 W/m² | - |
| 1777765612 | 19.44° C | 35% | 1017.9 hPa | 0 mm | - | 123 W/m² | - |
| 1777765309 | 19.44° C | 30% | 1018 hPa | 0 mm | - | 137 W/m² | - |
| 1777765005 | 18.89° C | 31% | 1018.2 hPa | 0 mm | - | 139 W/m² | - |
| 1777764702 | 18.89° C | 31% | 1018 hPa | 0 mm | - | 152 W/m² | - |
* Rain latest hour (hover to see other rain measurements)
** Current wind speed in m/s (hover to see current wind gust speed)